Total_Precipitation_Accumulation
0.02 0.05 0.17 0.23 0.20 0.17 0.16 0.16 0.16 0.13 0.13 0.14 0.16 0.18 0.19 0.21 0.22 0.23 0.23 0.23 0.22 0.21 0.21 0.23 0.23 0.22 0.20 0.18 0.18 0.18 0.17 0.15 0.14 0.16 0.18 0.21 0.22 0.21 0.20 0.20 0.17 0.18 0.24
0.04 0.07 0.14 0.17 0.16 0.14 0.14 0.14 0.13 0.10 0.10 0.10 0.10 0.11 0.13 0.15 0.18 0.19 0.21 0.22 0.23 0.22 0.20 0.20 0.20 0.20 0.18 0.19 0.21 0.19 0.17 0.14 0.11 0.11 0.11 0.10 0.15 0.19 0.20 0.22 0.22 0.26 0.26
0.03 0.05 0.09 0.13 0.13 0.13 0.14 0.11 0.09 0.08 0.07 0.07 0.07 0.08 0.09 0.10 0.12 0.15 0.16 0.17 0.18 0.19 0.20 0.19 0.20 0.22 0.19 0.20 0.22 0.20 0.19 0.14 0.09 0.07 0.07 0.10 0.16 0.18 0.20 0.21 0.20 0.25 0.27
0.01 0.03 0.05 0.10 0.11 0.12 0.12 0.11 0.09 0.08 0.07 0.07 0.07 0.07 0.08 0.08 0.08 0.08 0.10 0.12 0.16 0.20 0.24 0.23 0.22 0.24 0.21 0.19 0.20 0.20 0.21 0.17 0.10 0.06 0.02 0.07 0.21 0.24 0.25 0.25 0.23 0.27 0.29
0.01 0.01 0.04 0.08 0.11 0.12 0.12 0.11 0.09 0.08 0.08 0.08 0.08 0.07 0.08 0.07 0.06 0.05 0.05 0.07 0.15 0.21 0.25 0.27 0.26 0.26 0.25 0.23 0.21 0.22 0.24 0.21 0.12 0.05 0.01 0.03 0.16 0.29 0.27 0.27 0.25 0.27 0.28
0.00 0.01 0.03 0.09 0.12 0.12 0.12 0.12 0.09 0.08 0.09 0.09 0.08 0.08 0.09 0.08 0.06 0.05 0.04 0.04 0.07 0.14 0.20 0.25 0.28 0.31 0.31 0.25 0.23 0.26 0.31 0.29 0.12 0.02 0.01 0.02 0.13 0.29 0.30 0.28 0.26 0.25 0.25
0.00 0.02 0.05 0.10 0.12 0.11 0.12 0.13 0.10 0.10 0.10 0.10 0.08 0.08 0.09 0.09 0.08 0.07 0.06 0.06 0.05 0.06 0.12 0.18 0.22 0.28 0.32 0.28 0.27 0.31 0.39 0.30 0.10 0.07 0.04 0.03 0.11 0.39 0.52 0.41 0.32 0.27 0.27
0.00 0.02 0.05 0.08 0.10 0.11 0.13 0.14 0.12 0.12 0.13 0.12 0.10 0.09 0.08 0.07 0.08 0.09 0.09 0.08 0.07 0.07 0.09 0.11 0.16 0.23 0.29 0.30 0.31 0.35 0.39 0.24 0.09 0.10 0.10 0.08 0.19 0.54 0.67 0.68 0.53 0.35 0.29
0.00 0.00 0.01 0.03 0.06 0.09 0.12 0.14 0.12 0.11 0.12 0.12 0.11 0.08 0.07 0.07 0.09 0.12 0.11 0.08 0.08 0.09 0.09 0.08 0.08 0.11 0.18 0.27 0.31 0.30 0.28 0.19 0.10 0.16 0.14 0.19 0.22 0.59 0.73 0.82 0.72 0.51 0.37
0.00 0.00 0.00 0.01 0.02 0.04 0.08 0.13 0.12 0.10 0.10 0.10 0.09 0.08 0.08 0.08 0.08 0.10 0.09 0.07 0.07 0.09 0.09 0.08 0.08 0.07 0.09 0.12 0.15 0.16 0.13 0.10 0.09 0.16 0.28 0.25 0.25 0.64 0.80 0.85 0.76 0.65 0.53
0.00 0.00 0.00 0.01 0.01 0.02 0.04 0.08 0.10 0.11 0.10 0.09 0.08 0.07 0.06 0.05 0.04 0.04 0.04 0.05 0.07 0.07 0.07 0.08 0.09 0.08 0.07 0.04 0.04 0.06 0.04 0.02 0.06 0.17 0.23 0.24 0.38 0.75 0.86 0.86 0.81 0.73 0.68
0.00 0.00 0.00 0.00 0.01 0.02 0.03 0.06 0.09 0.09 0.09 0.08 0.08 0.08 0.08 0.06 0.05 0.05 0.04 0.06 0.08 0.08 0.08 0.10 0.11 0.09 0.07 0.04 0.07 0.09 0.03 0.01 0.02 0.05 0.07 0.12 0.40 0.79 0.92 0.89 0.90 0.87 0.83
0.00 0.00 0.00 0.00 0.01 0.02 0.02 0.04 0.05 0.06 0.08 0.09 0.11 0.12 0.12 0.10 0.11 0.12 0.11 0.11 0.09 0.09 0.11 0.14 0.15 0.16 0.17 0.17 0.18 0.16 0.09 0.06 0.04 0.02 0.02 0.07 0.20 0.41 0.69 0.84 0.92 0.96 0.95
0.00 0.00 0.00 0.00 0.01 0.01 0.02 0.03 0.03 0.05 0.06 0.07 0.09 0.09 0.09 0.09 0.12 0.14 0.15 0.13 0.10 0.11 0.13 0.16 0.16 0.15 0.16 0.15 0.16 0.15 0.13 0.11 0.08 0.07 0.04 0.05 0.09 0.14 0.31 0.54 0.72 0.85 0.95
0.00 0.00 0.00 0.00 0.01 0.01 0.02 0.03 0.03 0.03 0.04 0.05 0.06 0.05 0.05 0.07 0.07 0.06 0.04 0.04 0.05 0.06 0.07 0.06 0.06 0.06 0.08 0.10 0.11 0.11 0.13 0.14 0.14 0.12 0.10 0.09 0.08 0.08 0.13 0.27 0.47 0.68 0.85
0.00 0.00 0.00 0.00 0.00 0.01 0.02 0.03 0.03 0.03 0.03 0.03 0.03 0.03 0.03 0.04 0.04 0.04 0.03 0.03 0.03 0.03 0.03 0.02 0.02 0.02 0.02 0.03 0.04 0.06 0.09 0.10 0.12 0.13 0.13 0.14 0.12 0.10 0.11 0.17 0.28 0.54 0.76
0.00 0.00 0.00 0.00 0.00 0.01 0.02 0.03 0.03 0.03 0.02 0.02 0.03 0.02 0.02 0.02 0.02 0.03 0.03 0.03 0.03 0.02 0.02 0.01 0.01 0.01 0.01 0.01 0.01 0.01 0.03 0.05 0.07 0.08 0.11 0.15 0.17 0.15 0.14 0.15 0.18 0.34 0.60
0.00 0.00 0.00 0.00 0.00 0.01 0.02 0.03 0.03 0.02 0.02 0.02 0.02 0.02 0.02 0.02 0.02 0.03 0.03 0.03 0.02 0.02 0.02 0.01 0.01 0.01 0.01 0.01 0.01 0.00 0.00 0.01 0.02 0.03 0.05 0.10 0.18 0.21 0.19 0.18 0.18 0.21 0.40
0.00 0.00 0.00 0.00 0.00 0.01 0.02 0.02 0.02 0.02 0.02 0.02 0.02 0.02 0.02 0.02 0.02 0.02 0.02 0.02 0.02 0.02 0.02 0.02 0.02 0.01 0.01 0.01 0.01 0.00 0.00 0.00 0.01 0.02 0.03 0.05 0.09 0.17 0.23 0.23 0.22 0.19 0.25
0.00 0.00 0.00 0.00 0.00 0.01 0.01 0.02 0.02 0.02 0.02 0.01 0.01 0.02 0.01 0.01 0.01 0.02 0.02 0.01 0.01 0.02 0.02 0.01 0.01 0.01 0.01 0.01 0.01 0.01 0.00 0.00 0.00 0.01 0.02 0.04 0.05 0.09 0.17 0.24 0.26 0.20 0.17
0.00 0.00 0.00 0.00 0.00 0.01 0.01 0.02 0.02 0.02 0.01 0.01 0.01 0.01 0.01 0.01 0.01 0.01 0.01 0.01 0.01 0.01 0.01 0.01 0.01 0.01 0.01 0.02 0.02 0.01 0.00 0.00 0.00 0.00 0.00 0.01 0.03 0.05 0.09 0.19 0.27 0.26 0.21
0.00 0.00 0.00 0.00 0.00 0.00 0.01 0.01 0.01 0.01 0.01 0.00 0.01 0.01 0.01 0.01 0.01 0.01 0.01 0.01 0.01 0.01 0.01 0.01 0.01 0.03 0.03 0.03 0.06 0.10 0.04 0.01 0.00 0.00 0.00 0.00 0.01 0.02 0.06 0.11 0.21 0.27 0.27
0.00 0.00 0.00 0.00 0.00 0.00 0.00 0.01 0.01 0.01 0.01 0.01 0.01 0.01 0.01 0.01 0.00 0.00 0.00 0.01 0.00 0.01 0.01 0.02 0.02 0.05 0.07 0.04 0.08 0.23 0.30 0.15 0.05 0.00 0.00 0.00 0.01 0.01 0.03 0.07 0.14 0.22 0.29
0.00 0.00 0.00 0.00 0.00 0.00 0.00 0.01 0.01 0.01 0.01 0.00 0.00 0.00 0.01 0.00 0.00 0.00 0.00 0.00 0.00 0.01 0.02 0.03 0.04 0.06 0.12 0.12 0.09 0.13 0.23 0.27 0.29 0.13 0.01 0.01 0.01 0.02 0.02 0.03 0.07 0.14 0.22
0.00 0.00 0.00 0.00 0.00 0.00 0.00 0.00 0.00 0.00 0.00 0.00 0.00 0.01 0.01 0.01 0.00 0.00 0.00 0.00 0.00 0.01 0.02 0.04 0.06 0.08 0.14 0.19 0.18 0.17 0.14 0.13 0.18 0.28 0.12 0.02 0.03 0.03 0.03 0.03 0.05 0.09 0.15
0.00 0.00 0.00 0.00 0.00 0.00 0.00 0.01 0.01 0.00 0.00 0.00 0.00 0.01 0.01 0.01 0.01 0.00 0.00 0.00 0.01 0.01 0.02 0.04 0.07 0.11 0.14 0.17 0.20 0.21 0.24 0.25 0.19 0.25 0.22 0.07 0.03 0.02 0.03 0.03 0.04 0.08 0.13